Regional Weather Roundup
Issued by NWS

Home | Current Version | Previous Version | Graphics & Text | Print | Product List | Glossary On
Versions: 1 2 3 4 5 6 7 8 9 10 11 12 13 14 15 16 17 18 19 20 21 22 23 24 25 26 27 28 29 30 31 32 33 34 35 36 37 38 39 40 41 42 43 44 45 46 47 48 49 50
613
ASUS45 KBOU 220107
RWRCO

WEATHER ROUNDUP FOR COLORADO
NATIONAL WEATHER SERVICE DENVER/BOULDER CO
700 PM MDT WED JUN 21 2017

NOTE: "FAIR" INDICATES FEW OR NO CLOUDS BELOW 12000 FEET WITH NO
SIGNIFICANT WEATHER AND/OR OBSTRUCTIONS TO VISIBILITY.

COZ001>005-013-030-031-220200-
...NORTHWEST COLORADO...

CITY           SKY/WX    TMP DP  RH WIND       PRES   REMARKS
CRAIG          FAIR      82  41  23 NE9       30.06F
HAYDEN         FAIR      73  45  35 E8        30.11S
MEEKER         FAIR      86  37  17 E8        30.08F
RABBIT EARS PA FAIR      61  34  36 W9        30.45S
STEAMBOAT SPGS FAIR      80  38  23 S5        30.14R
WALDEN         FAIR      66  41  39 S9        30.25F
$$

COZ006>008-011-220200-
...WEST CENTRAL VALLEYS...

CITY           SKY/WX    TMP DP  RH WIND       PRES   REMARKS
GRAND JUNCTION FAIR      95  37  13 W13       29.90R
MONTROSE       FAIR      92  28  10 S16G25    29.99S
EAGLE          SUNNY     82  37  20 CALM      30.13F
RIFLE          FAIR      85  40  20 N22G37    30.00R
DELTA          FAIR      97  28   8 N20G25    29.93S
NUCLA          FAIR      91  25   9 SW3       30.03F
$$

COZ017>023-064>068-220200-
...SOUTHWEST COLORADO...

CITY           SKY/WX    TMP DP  RH WIND       PRES   REMARKS
DURANGO        FAIR      88  31  13 NW12      30.08F
CORTEZ         FAIR      92  33  12 E7        30.00F
PAGOSA SPRINGS FAIR      85  24  10 CALM      30.18F
TELLURIDE      PTSUNNY   78  29  16 W9        30.34S
WOLF CREEK PAS FAIR      61  30  31 W6        30.62S
$$

COZ009-010-012-014-032>034-037-058>063-220200-
...CENTRAL COLORADO...

CITY           SKY/WX    TMP DP  RH WIND       PRES   REMARKS
ASPEN          FAIR      75  38  26 VRB5      30.21F
BUENA VISTA    FAIR      79  25  13 NW23G32   30.20R
COPPER MTN     PTSUNNY   59  32  36 NW18G24   30.59S
BERTHOUD PASS  LGT RAIN  45  32  61 NW16G38   30.64R
COTTONWOOD PAS FAIR      75  14   9 NW8       30.38R
GUNNISON       FAIR      81  34  18 N16G23    30.17F
KREMMLING      NOT AVBL
LEADVILLE      FAIR      69  24  18 W10       30.39F
MONARCH PASS   FAIR      64  23  20 W15G29    30.67R
SALIDA         FAIR      88  20   8 NW8       30.21S
SUNLIGHT       FAIR      63  30  29 CALM      30.51S
WILKERSON PASS PTSUNNY   64  21  19 NW5       30.54R
$$

COZ069>075-220200-
...SAN LUIS VALLEY/SANGRE DE CRISTO MOUNTAINS...

CITY           SKY/WX    TMP DP  RH WIND       PRES   REMARKS
ALAMOSA        FAIR      82  36  19 SW10      30.15F
DEL NORTE      FAIR      82  27  13 NW8       30.19S
LA VETA PASS   PTSUNNY   63  39  42 MISG      30.52R
SAGUACHE       FAIR      84  28  13 N13G18    30.19S
$$

COZ035-036-038>040-220200-
...NORTHERN COLORADO FRONT RANGE...

CITY           SKY/WX    TMP DP  RH WIND       PRES   REMARKS
DENVER INTL AP PTSUNNY   88  34  14 S21G33    29.94R
DMNS CITY PARK   N/A     85  34  16 S3        29.94R
AURORA         PTSUNNY   85  37  18 S12       29.97S
FRONT RANGE AP FAIR      91  34  13 S9G20     29.96R
ERIE MUNI ARPT FAIR      88  34  14 N12       29.93R
BOULDER MUN AP FAIR      86  37  17 NW6       29.95R
CENTENNIAL     PTSUNNY   82  37  20 S9        29.98F
BROOMFIELD     FAIR      88  34  14 NW21      29.96S
FORT COLLINS   FAIR      87  41  19 NW9       29.93R
LONGMONT       FAIR      87  36  16 NW10G17   29.95R
$$

COZ041-046-047-076>085-087-088-220200-
...PIKES PEAK/PALMER DIVIDE AND SOUTHERN FOOTHILLS...

CITY           SKY/WX    TMP DP  RH WIND       PRES   REMARKS
COLO. SPRINGS  PTSUNNY   84  38  19 E12       30.06F
A. F. ACADEMY  MOSUNNY   81  39  22 CALM      30.09S
SCHRIEVER AFB  FAIR      83  38  20 NE6       30.06F
CHEYENNE MTN   FAIR      77  34  20 W6        30.08S
ELLICOTT       FAIR     N/A N/A N/A CALM      30.04R
FALCON           N/A     80  38  22 CALM      30.13F
FORT CARSON    FAIR      83  41  22 NE7       30.02S
LIMON          FAIR      86  34  15 N5        29.94S
MONUMENT HILL  FAIR      77  39  25 NW3       30.13F
CANON CITY     SUNNY     91  45  19 MISG      29.98S
WALSENBURG     FAIR      84  43  23 SW8       30.04F
TRINIDAD       FAIR      82  42  24 W3        30.03S
$$

COZ042>045-048>051-090-091-220200-
...NORTHEAST COLORADO...

CITY           SKY/WX    TMP DP  RH WIND       PRES   REMARKS
GREELEY ARPT   FAIR      92  37  14 W8        29.89R
AKRON          FAIR      94  32  11 N8        29.87S
BURLINGTON     FAIR      95  41  15 N13       29.82F
WRAY           FAIR      97  36  11 NE10G30   29.78F
YUMA           NOT AVBL
STERLING       FAIR      93  37  14 NW29G40   29.79F
HOLYOKE        NOT AVBL
FORT MORGAN    FAIR      87  37  16 N9        29.87R
$$

COZ086-089-092>099-220200-
...SOUTHEAST COLORADO...

CITY           SKY/WX    TMP DP  RH WIND       PRES   REMARKS
PUEBLO         FAIR      89  47  23 S5        29.92S
LA JUNTA       FAIR      93  44  18 SW15G24   29.84F
LAMAR          FAIR      98  43  15 W6        29.76F
SPRINGFIELD      N/A     77  51  40 W25G36    29.93R
$$




USA.gov is the U.S. government's official web portal to all federal, state and local government web resources and services.